[[{"header":{"parameterUnit":"m.s-1","parameterCategory":1,"la1":30.2991,"la2":30.254,"lo1":-89.0895,"lo2":-89.0444,"dy":0.0017,"dx":0.0017,"nx":28,"ny":28,"refTime":"2025-08-08T03:00:00:Z","depth":0,"parameterNumber":2,"parameterNumberName":"U-component_of_WINDS"},"data":[0,0,0,0,0,0,0,0,0,0,0,0,0,0,0,0,0,0,0,0,0,0,0,0,0,0,0,0,0,0,0,0,0,0,0,0,0,0,0,0,0,0,0,0,0,0,0,0,0,0,0,0,0,0,0,0,0,0,-3.1,-3.1001,0,-3.1111,-3.1112,-3.1113,-3.1075,-3.1073,-3.107,-3.1068,-3.1183,-3.1188,-3.1193,0,0,0,0,0,0,0,0,0,0,0,0,0,-3.0757,-3.0762,-3.1,-3.1001,-3.1003,-3.111,-3.1112,-3.1113,-3.1076,-3.1073,-3.107,-3.1067,-3.1181,-3.1187,-3.1193,0,0,0,0,0,0,0,0,0,0,0,0,0,-3.0865,-3.0763,-3.1,-3.0997,-3.0998,-3.111,-3.1112,-3.1114,-3.1076,-3.1073,-3.1069,-3.1066,-3.1179,-3.1186,-3.1194,-3.1317,0,0,-3.1219,-3.1222,0,0,0,0,0,0,0,0,-3.0859,-3.0874,-3.0996,-3.0997,-3.0998,-3.1075,-3.1068,-3.1182,-3.1077,-3.1046,-3.1068,-3.1064,-3.115,-3.116,-3.1189,-3.1322,-3.1327,-3.1219,-3.1224,-3.1228,-3.123,0,0,0,0,0,0,0,-3.0851,-3.0869,-3.1044,-3.0998,-3.0999,-3.099,-3.1002,-3.109,-3.1117,-3.1049,-3.1046,-3.106,-3.115,-3.1181,-3.1191,-3.1329,-3.1219,-3.1226,-3.1231,-3.1234,-3.1568,-3.1572,0,0,0,0,0,0,-3.0843,-3.0863,-3.104,-3.1047,-3.0918,-3.0998,-3.101,-3.1054,-3.1116,-3.1122,-3.1063,-3.1058,-3.1169,-3.1182,-3.1195,-3.1342,-3.1228,-3.1235,-3.124,-3.1564,-3.1569,-3.1573,0,0,0,0,0,0,-3.0838,-3.0859,-3.1036,-3.0954,-3.0976,-3.1006,-3.1056,-3.1058,-3.109,-3.1127,-3.1132,-3.109,-3.1167,-3.1184,-3.1287,-3.1346,-3.1239,-3.1246,-3.1559,-3.1565,-3.1571,-3.1637,0,0,0,0,0,0,-3.0831,-3.0857,-3.0904,-3.0956,-3.0981,-3.1125,-3.1059,-3.1063,-3.1103,-3.1098,-3.1153,-3.1159,-3.1165,-3.1275,-3.1295,-3.1355,-3.1252,-3.1554,-3.1562,-3.1569,-3.163,-3.1645,-3.1658,0,0,0,0,0,-3.0822,-3.0918,-3.0906,-3.0928,-3.1039,-3.1129,-3.1143,-3.1148,-3.1108,-3.1155,-3.1179,-3.1157,-3.1336,-3.1286,-3.1308,-3.1371,-3.155,-3.156,-3.1569,-3.1624,-3.1642,-3.1657,0,0,0,0,0,0,-3.0873,-3.0925,-3.0912,-3.1028,-3.1074,-3.1122,-3.1181,-3.1167,-3.1226,-3.1218,-3.1222,-3.1235,-3.1341,-3.1366,-3.1309,-3.1493,-3.1437,-3.1451,-3.1472,-3.149,-3.1503,-3.1494,-3.1259,0,0,0,0,0,-3.0898,-3.0966,-3.1008,-3.1105,-3.1129,-3.1152,-3.1191,-3.1191,-3.1239,-3.1258,-3.129,-3.1338,-3.1405,-3.1449,-3.1512,-3.1634,-3.1646,-3.1688,-3.1702,-3.1713,-3.1725,-3.1791,-3.1811,-3.1603,-3.1603,-3.1603,0,0,-3.0949,-3.0986,-3.1029,-3.1117,-3.1152,-3.1223,-3.1168,-3.1245,-3.1298,-3.127,-3.1369,-3.1394,-3.1448,-3.156,-3.1612,-3.1585,-3.1785,-3.1725,-3.1734,-3.174,-3.1803,-3.1822,-3.184,-3.161,-3.1609,-3.1608,0,0,-3.1079,-3.1114,-3.1199,-3.1236,-3.1291,-3.1305,-3.1326,-3.1376,-3.1392,-3.1491,-3.1471,-3.1534,-3.165,-3.1689,-3.1724,-3.1869,-3.1851,-3.189,-3.1962,-3.2026,-3.2043,-3.2057,-3.2109,-3.2127,-3.1902,-3.1902,-3.1902,0,-3.1136,-3.1241,-3.1245,-3.1323,-3.1362,-3.1341,-3.1427,-3.1463,-3.1536,-3.1564,-3.1533,-3.1678,-3.1712,-3.1834,-3.1869,-3.1899,-3.1922,-3.1883,-3.204,-3.2055,-3.2068,-3.2117,-3.2137,-3.1906,-3.1906,-3.1905,-3.1905,0,-3.1308,-3.1382,-3.1444,-3.1514,-3.1561,-3.1643,-3.166,-3.1706,-3.1703,-3.172,-3.1822,-3.1863,-3.1935,-3.1964,-3.1961,-3.2085,-3.2067,-3.2038,-3.1982,-3.2092,-3.2138,-3.2157,-3.1912,-3.1911,-3.191,-3.1909,0,0,-3.1472,-3.1544,-3.1567,-3.1598,-3.1658,-3.1715,-3.1796,-3.1866,-3.1906,-3.1957,-3.2026,-3.2124,-3.2098,-3.2138,-3.214,-3.2196,-3.2308,-3.2161,-3.2162,-3.2186,-3.2447,-3.2468,-3.2489,-3.2297,-3.2301,-3.2304,-3.2443,0,-3.1606,-3.1748,-3.1754,-3.1884,-3.1952,-3.1933,-3.2004,-3.2048,-3.2067,-3.2128,-3.2149,-3.2218,-3.2179,-3.2203,-3.2258,-3.2283,-3.2361,-3.2273,-3.2361,-3.2364,-3.2347,-3.2514,-3.2536,-3.2665,-3.2461,-3.2464,-3.2466,0,-3.1781,-3.1837,-3.1974,-3.2023,-3.2052,-3.2116,-3.218,-3.2238,-3.2288,-3.2298,-3.2343,-3.2337,-3.2421,-3.2363,-3.2479,-3.2419,-3.2456,-3.2473,-3.2479,-3.2486,-3.2421,-3.2525,-3.2706,-3.2725,-3.2495,-3.2492,-3.249,0,-3.1886,-3.1996,-3.2092,-3.212,-3.218,-3.2225,-3.2253,-3.2299,-3.2341,-3.2398,-3.2425,-3.2491,-3.2527,-3.2578,-3.259,-3.2547,-3.2706,-3.2649,-3.2717,-3.2716,-3.275,-3.2748,-3.2938,-3.2775,-3.2775,-3.2774,-3.2774,0,-3.2034,-3.2118,-3.214,-3.2199,-3.2293,-3.2299,-3.2392,-3.2416,-3.2458,-3.2522,-3.251,-3.257,-3.2582,-3.2645,-3.2655,-3.2749,-3.2766,-3.2776,-3.2778,-3.2777,-3.2776,-3.28,-3.2791,-3.278,-3.2778,-3.2777,-3.2776,0,-3.2167,-3.2185,-3.2288,-3.2336,-3.2351,-3.2418,-3.246,-3.2516,-3.2534,-3.2615,-3.2634,-3.2663,-3.2736,-3.2753,-3.2841,-3.2848,-3.2959,-3.2952,-3.2942,-3.2941,-3.3007,-3.3001,-3.322,-3.3249,-3.3067,-3.3069,-3.307,0,-3.226,-3.2324,-3.238,-3.2421,-3.245,-3.2518,-3.256,-3.2569,-3.2614,-3.2676,-3.2725,-3.2797,-3.2855,-3.2974,-3.3002,-3.3069,-3.3064,-3.3136,-3.3074,-3.3071,-3.3064,-3.306,-3.3066,-3.3148,-3.3149,-3.3151,-3.3152,0,-3.2423,-3.2429,-3.249,-3.2554,-3.2605,-3.2656,-3.2705,-3.274,-3.2756,-3.2807,-3.2882,-3.2927,-3.3016,-3.3088,-3.3155,-3.3184,-3.3172,-3.3172,-3.3191,-3.319,-3.3181,-3.3187,-3.2973,-3.3167,-3.3165,-3.3164,-3.3163,-3.3163,-3.2539,-3.2594,-3.2642,-3.2711,-3.2749,-3.2795,-3.285,-3.2875,-3.2937,-3.301,-3.3012,-3.3094,-3.3143,-3.3232,-3.3265,-3.3329,-3.3307,-3.3334,-3.3341,-3.3348,-3.3353,-3.3172,-3.3341,-3.3341,-3.3341,-3.334,-3.334,0,-3.2701,-3.273,-3.2793,-3.2862,-3.2916,-3.2899,-3.2953,-3.2999,-3.3071,-3.3117,-3.3174,-3.326,-3.333,-3.3365,-3.3434,-3.3478,-3.3474,-3.3496,-3.3493,-3.3499,-3.337,-3.3346,-3.3498,-3.3498,-3.3498,-3.3498,-3.3498,-3.3498,-3.2791,-3.2885,-3.2896,-3.3009,-3.3038,-3.3118,-3.315,-3.3192,-3.3229,-3.3326,-3.3383,-3.3405,-3.3447,-3.3519,-3.3582,-3.3591,-3.3617,-3.3642,-3.3647,-3.3525,-3.3509,-3.3493,-3.3471,-3.3647,-3.3647,-3.3771,-3.3773,-3.3773]},{"header":{"parameterUnit":"m.s-1","parameterCategory":1,"la1":30.2991,"la2":30.254,"lo1":-89.0895,"lo2":-89.0444,"dy":0.0017,"dx":0.0017,"nx":28,"ny":28,"refTime":"2025-08-08T03:00:00:Z","depth":0,"parameterNumber":3,"parameterNumberName":"V-component_of_WINDS"},"data":[0,0,0,0,0,0,0,0,0,0,0,0,0,0,0,0,0,0,0,0,0,0,0,0,0,0,0,0,0,0,0,0,0,0,0,0,0,0,0,0,0,0,0,0,0,0,0,0,0,0,0,0,0,0,0,0,0,0,2.4332,2.4333,0,2.4375,2.4376,2.4376,2.4372,2.4372,2.4371,2.4371,2.4412,2.4414,2.4415,0,0,0,0,0,0,0,0,0,0,0,0,0,2.4244,2.4245,2.4332,2.4333,2.4333,2.4375,2.4376,2.4376,2.4373,2.4372,2.4371,2.437,2.4411,2.4413,2.4415,0,0,0,0,0,0,0,0,0,0,0,0,0,2.4284,2.4246,2.4332,2.4336,2.4337,2.4375,2.4376,2.4377,2.4373,2.4372,2.4371,2.437,2.4411,2.4413,2.4416,2.4451,0,0,2.4424,2.4425,0,0,0,0,0,0,0,0,2.4281,2.4287,2.4335,2.4336,2.4337,2.4368,2.436,2.4401,2.4373,2.4359,2.4371,2.4369,2.4398,2.4401,2.4411,2.4453,2.4455,2.4424,2.4425,2.4426,2.4427,0,0,0,0,0,0,0,2.4279,2.4285,2.4349,2.4336,2.4337,2.4335,2.434,2.4368,2.4383,2.436,2.436,2.4365,2.4398,2.4409,2.4412,2.4455,2.4424,2.4426,2.4428,2.4429,2.4527,2.4528,0,0,0,0,0,0,2.4275,2.4283,2.4348,2.435,2.4306,2.4338,2.4343,2.4359,2.4383,2.4386,2.4366,2.4365,2.4405,2.4409,2.4414,2.4456,2.4426,2.4429,2.443,2.4526,2.4527,2.4528,0,0,0,0,0,0,2.4273,2.4281,2.4346,2.4317,2.4325,2.434,2.4358,2.436,2.4371,2.4388,2.439,2.4375,2.4405,2.441,2.4442,2.4457,2.443,2.4432,2.4525,2.4526,2.4528,2.4541,0,0,0,0,0,0,2.4271,2.4281,2.4295,2.4317,2.4326,2.4374,2.4359,2.4362,2.4376,2.4375,2.4396,2.4399,2.4404,2.4438,2.4444,2.446,2.4434,2.4523,2.4525,2.4527,2.4539,2.4543,2.4546,0,0,0,0,0,2.4268,2.4297,2.4296,2.4304,2.4345,2.4375,2.438,2.4387,2.4377,2.4391,2.4402,2.4398,2.4455,2.4441,2.4448,2.4465,2.4522,2.4525,2.4527,2.4538,2.4542,2.4546,0,0,0,0,0,0,2.4275,2.43,2.4299,2.4336,2.4354,2.4375,2.4392,2.4392,2.4412,2.441,2.4416,2.4421,2.4452,2.4462,2.4447,2.45,2.4487,2.4491,2.4493,2.4497,2.4501,2.4497,2.4436,0,0,0,0,0,2.4281,2.4305,2.4325,2.4355,2.4364,2.4377,2.439,2.4394,2.4412,2.4419,2.4432,2.4449,2.447,2.4484,2.4505,2.4541,2.4545,2.4556,2.4559,2.4562,2.4565,2.4584,2.4589,2.4536,2.4536,2.4536,0,0,2.4294,2.431,2.4325,2.4357,2.4371,2.4394,2.4383,2.4408,2.4425,2.4423,2.4453,2.4463,2.4482,2.4516,2.4531,2.4525,2.4581,2.4565,2.4567,2.4569,2.4587,2.4592,2.4596,2.4538,2.4538,2.4537,0,0,2.4328,2.4344,2.4371,2.4385,2.4407,2.4415,2.4421,2.4442,2.4449,2.448,2.4478,2.4498,2.4535,2.4549,2.456,2.4599,2.4596,2.4606,2.4623,2.4641,2.4645,2.4649,2.4662,2.4667,2.4609,2.4609,2.4609,0,2.4341,2.4377,2.4384,2.441,2.4423,2.4423,2.4449,2.4463,2.449,2.4499,2.4492,2.4538,2.4551,2.4587,2.4597,2.4607,2.4613,2.4603,2.4644,2.4648,2.4652,2.4664,2.4669,2.461,2.461,2.461,2.461,0,2.4391,2.4415,2.4434,2.4461,2.4477,2.4503,2.4513,2.4528,2.453,2.4539,2.4569,2.4585,2.4609,2.4618,2.462,2.4654,2.4649,2.4643,2.463,2.4657,2.4669,2.4674,2.4611,2.4611,2.4611,2.4611,0,0,2.4431,2.4462,2.4468,2.448,2.4504,2.4522,2.4547,2.4571,2.4583,2.4602,2.4622,2.4654,2.4648,2.4662,2.4665,2.4681,2.4709,2.4673,2.4673,2.4678,2.4747,2.475,2.4756,2.4708,2.4709,2.471,2.4745,0,2.4468,2.4513,2.452,2.456,2.4582,2.4581,2.4603,2.4619,2.4628,2.4647,2.4656,2.4678,2.4669,2.4677,2.4693,2.4703,2.4723,2.47,2.4726,2.4727,2.472,2.4762,2.4766,2.4799,2.4749,2.475,2.4751,0,2.4516,2.4536,2.4578,2.4598,2.4608,2.4627,2.4649,2.4668,2.4685,2.469,2.4705,2.4706,2.4731,2.4717,2.4751,2.4735,2.4746,2.4752,2.4754,2.4756,2.474,2.4764,2.4809,2.4814,2.4758,2.4758,2.4757,0,2.454,2.4578,2.4608,2.4618,2.4642,2.4655,2.4666,2.4683,2.4696,2.4715,2.4724,2.4745,2.4756,2.4772,2.4779,2.4768,2.4811,2.4798,2.4815,2.4815,2.4824,2.4823,2.487,2.4832,2.4832,2.4832,2.4832,0,2.458,2.4605,2.4619,2.4637,2.4665,2.4672,2.4699,2.4709,2.4724,2.4743,2.4744,2.4762,2.477,2.4789,2.4794,2.4821,2.4826,2.483,2.4831,2.4829,2.4829,2.4836,2.4833,2.4833,2.4833,2.4833,2.4833,0,2.4611,2.4622,2.4654,2.4674,2.4679,2.4699,2.4716,2.4733,2.4741,2.4765,2.4771,2.4784,2.4806,2.4814,2.4841,2.4844,2.4874,2.4874,2.4869,2.4869,2.4885,2.4883,2.4937,2.4944,2.4903,2.4903,2.4903,0,2.4635,2.4655,2.4677,2.469,2.4701,2.4723,2.4736,2.4744,2.4758,2.4779,2.4794,2.4816,2.4834,2.4869,2.488,2.49,2.4899,2.4917,2.4902,2.49,2.4898,2.4897,2.4898,2.4919,2.492,2.492,2.4921,0,2.4676,2.468,2.4701,2.4723,2.4739,2.4757,2.4773,2.4784,2.4794,2.481,2.4832,2.4846,2.4874,2.4895,2.4916,2.4926,2.4924,2.4925,2.493,2.4928,2.4924,2.4925,2.4875,2.4924,2.4923,2.4923,2.4923,2.4923,2.4704,2.4721,2.4739,2.4762,2.4775,2.4791,2.4807,2.4818,2.4837,2.486,2.4863,2.4888,2.4904,2.4932,2.4942,2.496,2.4956,2.4963,2.4964,2.4966,2.4966,2.4922,2.4964,2.4964,2.4964,2.4964,2.4964,0,2.4745,2.4756,2.4777,2.48,2.4818,2.4816,2.4834,2.4848,2.487,2.4885,2.4903,2.4929,2.4949,2.4962,2.4982,2.4995,2.4994,2.5,2.4998,2.5,2.497,2.4963,2.4999,2.4999,2.4999,2.4999,2.4999,2.4999,2.4768,2.4796,2.4802,2.4837,2.4848,2.4872,2.4882,2.4896,2.4909,2.4937,2.4955,2.4963,2.4977,2.4998,2.5017,2.502,2.5027,2.5032,2.5035,2.5006,2.5003,2.4999,2.4993,2.5034,2.5034,2.5063,2.5064,2.5064]}]]